Wetterdaten: Woche 26.01.15 - 01.02.15 (KW5)
Datum Zeit Temperatur Luftfeuchte Luftdruck Niederschlag Windrichtung Sonnenschein Solar Wind
26.01.2015 00:00 -1,3 C 93 % 1028,5 hPa 0,0 l/m NW 0,00 h 0 W/m 3,3 km/h (1 Bft)
26.01.2015 01:00 -1,4 C 93 % 1028,1 hPa 0,0 l/m N 0,00 h 0 W/m 0,3 km/h (0 Bft)
26.01.2015 02:00 -1,6 C 93 % 1028,0 hPa 0,0 l/m NW 0,00 h 0 W/m 1,1 km/h (0 Bft)
26.01.2015 03:00 -1,6 C 94 % 1028,0 hPa 0,0 l/m NW 0,00 h 0 W/m 3,9 km/h (1 Bft)
26.01.2015 04:00 -1,7 C 95 % 1027,7 hPa 0,0 l/m W-SW 0,00 h 0 W/m 7,8 km/h (2 Bft)
26.01.2015 05:00 -1,7 C 95 % 1027,6 hPa 0,0 l/m W-SW 0,00 h 0 W/m 7,5 km/h (2 Bft)
26.01.2015 06:00 -1,8 C 95 % 1027,7 hPa 0,0 l/m SW 0,00 h 0 W/m 5,9 km/h (2 Bft)
26.01.2015 07:00 -1,8 C 95 % 1027,4 hPa 0,0 l/m SW 0,00 h 0 W/m 8,4 km/h (2 Bft)
26.01.2015 08:00 -1,8 C 95 % 1027,3 hPa 0,0 l/m SW 0,00 h 30 W/m 6,7 km/h (2 Bft)
26.01.2015 09:00 -1,1 C 95 % 1027,2 hPa 0,0 l/m SW 0,17 h 96 W/m 5,5 km/h (1 Bft)
26.01.2015 10:00 -0,5 C 92 % 1026,9 hPa 0,0 l/m SW 0,08 h 144 W/m 8,3 km/h (2 Bft)
26.01.2015 11:00 -0,2 C 91 % 1026,5 hPa 0,0 l/m SW 0,00 h 119 W/m 8,8 km/h (2 Bft)
26.01.2015 12:00 -0,2 C 88 % 1025,7 hPa 0,0 l/m SW 0,00 h 115 W/m 12,0 km/h (2 Bft)
26.01.2015 13:00 -0,3 C 87 % 1024,9 hPa 0,0 l/m W-SW 0,00 h 75 W/m 12,9 km/h (3 Bft)
26.01.2015 14:00 -0,5 C 88 % 1024,0 hPa 0,0 l/m W-SW 0,00 h 71 W/m 14,4 km/h (3 Bft)
26.01.2015 15:00 -0,7 C 90 % 1023,5 hPa 0,0 l/m SW 0,00 h 47 W/m 16,0 km/h (3 Bft)
26.01.2015 16:00 -1,1 C 92 % 1023,0 hPa 0,0 l/m SW 0,00 h 15 W/m 14,6 km/h (3 Bft)
26.01.2015 17:00 -1,5 C 93 % 1022,3 hPa 0,0 l/m SW 0,00 h 0 W/m 19,0 km/h (3 Bft)
26.01.2015 18:00 -1,6 C 95 % 1021,6 hPa 0,2 l/m SW 0,00 h 0 W/m 18,1 km/h (3 Bft)
26.01.2015 19:00 -1,6 C 96 % 1021,2 hPa 0,4 l/m SW 0,00 h 0 W/m 20,1 km/h (4 Bft)
26.01.2015 20:00 -1,4 C 96 % 1020,5 hPa 0,4 l/m SW 0,00 h 0 W/m 19,2 km/h (3 Bft)
26.01.2015 21:00 -1,3 C 97 % 1020,0 hPa 0,4 l/m SW 0,00 h 0 W/m 14,5 km/h (3 Bft)
26.01.2015 22:00 -1,0 C 97 % 1019,6 hPa 1,4 l/m SW 0,00 h 0 W/m 15,0 km/h (3 Bft)
26.01.2015 23:00 -0,6 C 97 % 1019,7 hPa 0,6 l/m SW 0,00 h 0 W/m 15,0 km/h (3 Bft)
27.01.2015 00:00 -0,4 C 97 % 1019,8 hPa 0,2 l/m SW 0,00 h 0 W/m 13,4 km/h (3 Bft)
27.01.2015 01:00 -0,2 C 97 % 1020,1 hPa 0,4 l/m W-SW 0,00 h 0 W/m 11,4 km/h (2 Bft)
27.01.2015 02:00 0,1 C 98 % 1020,3 hPa 0,2 l/m W-SW 0,00 h 0 W/m 11,6 km/h (2 Bft)
27.01.2015 03:00 0,2 C 98 % 1020,6 hPa 0,0 l/m W-SW 0,00 h 0 W/m 7,9 km/h (2 Bft)
27.01.2015 04:00 0,2 C 98 % 1021,0 hPa 0,0 l/m W 0,00 h 0 W/m 7,5 km/h (2 Bft)
27.01.2015 05:00 0,1 C 98 % 1021,1 hPa 0,0 l/m W 0,00 h 0 W/m 6,0 km/h (2 Bft)
27.01.2015 06:00 0,1 C 98 % 1021,4 hPa 0,0 l/m W 0,00 h 0 W/m 6,2 km/h (2 Bft)
27.01.2015 07:00 0,1 C 98 % 1021,9 hPa 0,2 l/m W 0,00 h 0 W/m 7,4 km/h (2 Bft)
27.01.2015 08:00 -0,1 C 98 % 1022,0 hPa 0,0 l/m W 0,00 h 13 W/m 6,0 km/h (2 Bft)
27.01.2015 09:00 -0,1 C 98 % 1022,4 hPa 0,0 l/m W-NW 0,17 h 85 W/m 14,0 km/h (3 Bft)
27.01.2015 10:00 0,7 C 97 % 1022,9 hPa 0,0 l/m W-NW 0,00 h 108 W/m 10,7 km/h (2 Bft)
27.01.2015 11:00 1,3 C 95 % 1023,2 hPa 0,0 l/m W-NW 0,00 h 139 W/m 14,0 km/h (3 Bft)
27.01.2015 12:00 1,7 C 87 % 1023,0 hPa 0,0 l/m W-NW 0,00 h 167 W/m 14,0 km/h (3 Bft)
27.01.2015 13:00 2,0 C 82 % 1022,5 hPa 0,0 l/m W-NW 0,00 h 175 W/m 14,1 km/h (3 Bft)
27.01.2015 14:00 1,7 C 83 % 1022,1 hPa 0,0 l/m W-NW 0,00 h 103 W/m 12,5 km/h (3 Bft)
27.01.2015 15:00 1,5 C 83 % 1022,1 hPa 0,0 l/m W 0,00 h 64 W/m 12,1 km/h (2 Bft)
27.01.2015 16:00 1,1 C 85 % 1022,0 hPa 0,0 l/m W 0,00 h 22 W/m 11,8 km/h (2 Bft)
27.01.2015 17:00 0,8 C 88 % 1022,3 hPa 0,0 l/m W 0,00 h 5 W/m 11,7 km/h (2 Bft)
27.01.2015 18:00 0,3 C 91 % 1022,5 hPa 0,0 l/m W 0,00 h 0 W/m 10,7 km/h (2 Bft)
27.01.2015 19:00 0,0 C 93 % 1022,6 hPa 0,2 l/m W-NW 0,00 h 0 W/m 12,8 km/h (3 Bft)
27.01.2015 20:00 -0,1 C 94 % 1022,4 hPa 0,0 l/m W-NW 0,00 h 0 W/m 11,2 km/h (2 Bft)
27.01.2015 21:00 -0,2 C 94 % 1022,5 hPa 0,0 l/m W 0,00 h 0 W/m 8,0 km/h (2 Bft)
27.01.2015 22:00 -0,2 C 95 % 1022,3 hPa 0,2 l/m W 0,00 h 0 W/m 6,7 km/h (2 Bft)
27.01.2015 23:00 -0,4 C 95 % 1022,2 hPa 0,0 l/m N 0,00 h 0 W/m 0,7 km/h (0 Bft)
28.01.2015 00:00 -0,5 C 95 % 1022,4 hPa 0,0 l/m W 0,00 h 0 W/m 2,4 km/h (1 Bft)
28.01.2015 01:00 -0,4 C 95 % 1022,5 hPa 0,2 l/m W 0,00 h 0 W/m 5,9 km/h (2 Bft)
28.01.2015 02:00 -0,3 C 95 % 1022,5 hPa 0,2 l/m N 0,00 h 0 W/m 1,9 km/h (1 Bft)
28.01.2015 03:00 -0,8 C 95 % 1022,1 hPa 0,0 l/m W 0,00 h 0 W/m 2,9 km/h (1 Bft)
28.01.2015 04:00 -1,8 C 95 % 1021,6 hPa 0,0 l/m W 0,00 h 0 W/m 3,6 km/h (1 Bft)
28.01.2015 05:00 -2,3 C 95 % 1021,3 hPa 0,0 l/m W 0,00 h 0 W/m 4,5 km/h (1 Bft)
28.01.2015 06:00 -1,8 C 96 % 1020,8 hPa 0,0 l/m W-SW 0,00 h 0 W/m 7,5 km/h (2 Bft)
28.01.2015 07:00 -1,3 C 97 % 1020,8 hPa 0,0 l/m SW 0,00 h 5 W/m 7,0 km/h (2 Bft)
28.01.2015 08:00 -1,1 C 97 % 1020,5 hPa 0,0 l/m SW 0,00 h 14 W/m 13,0 km/h (3 Bft)
28.01.2015 09:00 -0,7 C 97 % 1020,2 hPa 0,0 l/m SW 0,00 h 83 W/m 6,3 km/h (2 Bft)
28.01.2015 10:00 -0,2 C 96 % 1019,2 hPa 0,0 l/m S-SW 0,08 h 151 W/m 12,6 km/h (3 Bft)
28.01.2015 11:00 0,5 C 91 % 1018,6 hPa 0,0 l/m W-SW 0,17 h 197 W/m 20,9 km/h (4 Bft)
28.01.2015 12:00 0,9 C 87 % 1017,4 hPa 0,0 l/m SW 0,92 h 252 W/m 22,1 km/h (4 Bft)
28.01.2015 13:00 1,2 C 85 % 1016,3 hPa 0,0 l/m W-SW 0,50 h 226 W/m 20,5 km/h (4 Bft)
28.01.2015 14:00 1,3 C 85 % 1015,0 hPa 0,0 l/m SW 0,00 h 126 W/m 21,2 km/h (4 Bft)
28.01.2015 15:00 1,0 C 85 % 1013,2 hPa 0,0 l/m SW 0,00 h 106 W/m 23,4 km/h (4 Bft)
28.01.2015 16:00 0,7 C 84 % 1012,3 hPa 0,0 l/m W-SW 0,08 h 35 W/m 21,3 km/h (4 Bft)
28.01.2015 17:00 0,6 C 86 % 1010,8 hPa 0,0 l/m SW 0,00 h 6 W/m 19,7 km/h (3 Bft)
28.01.2015 18:00 0,3 C 87 % 1009,2 hPa 0,0 l/m SW 0,00 h 0 W/m 24,4 km/h (4 Bft)
28.01.2015 19:00 0,3 C 87 % 1007,8 hPa 0,0 l/m SW 0,00 h 0 W/m 27,4 km/h (4 Bft)
28.01.2015 20:00 1,0 C 86 % 1005,9 hPa 0,0 l/m W-SW 0,00 h 0 W/m 39,3 km/h (6 Bft)
28.01.2015 21:00 1,4 C 85 % 1004,7 hPa 0,0 l/m SW 0,00 h 0 W/m 34,7 km/h (5 Bft)
28.01.2015 22:00 1,7 C 87 % 1003,7 hPa 0,0 l/m SW 0,00 h 0 W/m 28,3 km/h (4 Bft)
28.01.2015 23:00 1,3 C 93 % 1002,6 hPa 0,2 l/m W-SW 0,00 h 0 W/m 21,0 km/h (4 Bft)
29.01.2015 00:00 1,6 C 94 % 1001,7 hPa 0,4 l/m SW 0,00 h 0 W/m 28,4 km/h (4 Bft)
29.01.2015 01:00 1,4 C 95 % 1001,4 hPa 0,6 l/m W-SW 0,00 h 0 W/m 21,2 km/h (4 Bft)
29.01.2015 02:00 1,3 C 96 % 1001,5 hPa 1,0 l/m W 0,00 h 0 W/m 14,1 km/h (3 Bft)
29.01.2015 03:00 1,0 C 96 % 1001,8 hPa 0,4 l/m W-NW 0,00 h 0 W/m 18,9 km/h (3 Bft)
29.01.2015 04:00 0,2 C 95 % 1001,5 hPa 0,2 l/m W 0,00 h 0 W/m 18,8 km/h (3 Bft)
29.01.2015 05:00 -0,0 C 93 % 1001,5 hPa 0,0 l/m W-SW 0,00 h 0 W/m 12,8 km/h (3 Bft)
29.01.2015 06:00 -0,2 C 93 % 1001,5 hPa 0,0 l/m SW 0,00 h 0 W/m 10,9 km/h (2 Bft)
29.01.2015 07:00 -0,5 C 94 % 1001,4 hPa 0,0 l/m SW 0,00 h 0 W/m 14,2 km/h (3 Bft)
29.01.2015 08:00 -0,6 C 95 % 1001,0 hPa 0,0 l/m W-SW 0,00 h 14 W/m 15,7 km/h (3 Bft)
29.01.2015 09:00 -0,3 C 96 % 1000,1 hPa 0,0 l/m SW 0,00 h 58 W/m 19,4 km/h (3 Bft)
29.01.2015 10:00 0,1 C 95 % 999,2 hPa 0,0 l/m SW 0,00 h 80 W/m 17,4 km/h (3 Bft)
29.01.2015 11:00 0,5 C 93 % 998,2 hPa 0,0 l/m SW 0,25 h 185 W/m 19,8 km/h (4 Bft)
29.01.2015 12:00 0,9 C 93 % 996,4 hPa 0,0 l/m SW 0,00 h 129 W/m 16,5 km/h (3 Bft)
29.01.2015 13:00 1,2 C 95 % 994,4 hPa 0,0 l/m SW 0,00 h 83 W/m 15,6 km/h (3 Bft)
29.01.2015 14:00 1,3 C 95 % 992,5 hPa 0,0 l/m SW 0,00 h 75 W/m 16,8 km/h (3 Bft)
29.01.2015 15:00 1,3 C 96 % 990,9 hPa 0,2 l/m SW 0,00 h 54 W/m 17,3 km/h (3 Bft)
29.01.2015 16:00 0,9 C 97 % 988,7 hPa 0,0 l/m S-SW 0,00 h 17 W/m 18,1 km/h (3 Bft)
29.01.2015 17:00 0,7 C 97 % 987,1 hPa 0,2 l/m SW 0,00 h 0 W/m 15,6 km/h (3 Bft)
29.01.2015 18:00 0,8 C 98 % 985,6 hPa 0,2 l/m S-SW 0,00 h 0 W/m 15,7 km/h (3 Bft)
29.01.2015 19:00 0,8 C 98 % 983,7 hPa 0,2 l/m S-SW 0,00 h 0 W/m 12,2 km/h (2 Bft)
29.01.2015 20:00 0,6 C 98 % 981,9 hPa 0,2 l/m S-SW 0,00 h 0 W/m 11,7 km/h (2 Bft)
29.01.2015 21:00 0,5 C 98 % 980,1 hPa 0,4 l/m S-SW 0,00 h 0 W/m 11,4 km/h (2 Bft)
29.01.2015 22:00 0,7 C 98 % 978,7 hPa 0,2 l/m SW 0,00 h 0 W/m 6,5 km/h (2 Bft)
29.01.2015 23:00 0,6 C 98 % 977,2 hPa 0,2 l/m SW 0,00 h 0 W/m 8,2 km/h (2 Bft)
30.01.2015 00:00 1,2 C 99 % 975,8 hPa 0,8 l/m W-SW 0,00 h 0 W/m 17,4 km/h (3 Bft)
30.01.2015 01:00 0,8 C 98 % 975,1 hPa 2,0 l/m W-SW 0,00 h 0 W/m 16,1 km/h (3 Bft)
30.01.2015 02:00 0,7 C 98 % 975,0 hPa 3,0 l/m W-SW 0,00 h 0 W/m 21,7 km/h (4 Bft)
30.01.2015 03:00 1,0 C 98 % 975,5 hPa 1,2 l/m W 0,00 h 0 W/m 24,7 km/h (4 Bft)
30.01.2015 04:00 1,0 C 98 % 976,1 hPa 0,0 l/m W-SW 0,00 h 0 W/m 17,6 km/h (3 Bft)
30.01.2015 05:00 0,8 C 97 % 977,1 hPa 0,0 l/m W-SW 0,00 h 0 W/m 23,2 km/h (4 Bft)
30.01.2015 06:00 0,2 C 95 % 978,8 hPa 0,2 l/m W-SW 0,00 h 0 W/m 24,0 km/h (4 Bft)
30.01.2015 07:00 -0,5 C 95 % 980,1 hPa 0,4 l/m W 0,00 h 0 W/m 25,5 km/h (4 Bft)
30.01.2015 08:00 -1,3 C 93 % 981,3 hPa 0,6 l/m W 0,00 h 19 W/m 25,5 km/h (4 Bft)
30.01.2015 09:00 -1,3 C 91 % 982,2 hPa 0,2 l/m W-SW 0,00 h 47 W/m 17,7 km/h (3 Bft)
30.01.2015 10:00 -1,3 C 89 % 982,1 hPa 0,0 l/m W-SW 0,00 h 108 W/m 20,5 km/h (4 Bft)
30.01.2015 11:00 -1,1 C 88 % 981,6 hPa 0,0 l/m W-SW 0,00 h 83 W/m 18,0 km/h (3 Bft)
30.01.2015 12:00 -0,7 C 88 % 980,9 hPa 0,0 l/m W-SW 0,00 h 91 W/m 20,8 km/h (4 Bft)
30.01.2015 13:00 -0,4 C 89 % 980,2 hPa 0,0 l/m SW 0,00 h 118 W/m 17,4 km/h (3 Bft)
30.01.2015 14:00 -0,4 C 91 % 979,6 hPa 0,0 l/m SW 0,00 h 77 W/m 18,0 km/h (3 Bft)
30.01.2015 15:00 -0,5 C 91 % 979,5 hPa 0,0 l/m SW 0,00 h 30 W/m 18,5 km/h (3 Bft)
30.01.2015 16:00 -0,4 C 92 % 979,4 hPa 0,0 l/m SW 0,00 h 23 W/m 14,5 km/h (3 Bft)
30.01.2015 17:00 -0,5 C 92 % 979,2 hPa 0,0 l/m SW 0,00 h 5 W/m 15,8 km/h (3 Bft)
30.01.2015 18:00 -0,6 C 93 % 978,9 hPa 0,0 l/m SW 0,00 h 0 W/m 16,8 km/h (3 Bft)
30.01.2015 19:00 -0,8 C 94 % 978,7 hPa 0,0 l/m W-SW 0,00 h 0 W/m 22,0 km/h (4 Bft)
30.01.2015 20:00 -1,0 C 95 % 978,6 hPa 0,0 l/m SW 0,00 h 0 W/m 21,7 km/h (4 Bft)
30.01.2015 21:00 -1,1 C 96 % 978,8 hPa 0,0 l/m SW 0,00 h 0 W/m 18,9 km/h (3 Bft)
30.01.2015 22:00 -0,9 C 96 % 979,3 hPa 0,0 l/m W-SW 0,00 h 0 W/m 20,0 km/h (4 Bft)
30.01.2015 23:00 -0,7 C 96 % 980,0 hPa 0,0 l/m W-SW 0,00 h 0 W/m 20,0 km/h (4 Bft)
31.01.2015 00:00 -0,6 C 95 % 980,6 hPa 0,0 l/m W-SW 0,00 h 0 W/m 15,3 km/h (3 Bft)
31.01.2015 01:00 -0,6 C 95 % 981,1 hPa 0,0 l/m W-SW 0,00 h 0 W/m 14,4 km/h (3 Bft)
31.01.2015 02:00 -0,6 C 95 % 981,6 hPa 0,0 l/m W-SW 0,00 h 0 W/m 15,2 km/h (3 Bft)
31.01.2015 03:00 -0,6 C 95 % 982,0 hPa 0,0 l/m W-SW 0,00 h 0 W/m 16,9 km/h (3 Bft)
31.01.2015 04:00 -0,6 C 94 % 982,5 hPa 0,0 l/m W-SW 0,00 h 0 W/m 20,0 km/h (4 Bft)
31.01.2015 05:00 -0,7 C 93 % 983,0 hPa 0,0 l/m W 0,00 h 0 W/m 11,0 km/h (2 Bft)
31.01.2015 06:00 -0,8 C 93 % 983,3 hPa 0,0 l/m W-SW 0,00 h 0 W/m 14,8 km/h (3 Bft)
31.01.2015 07:00 -1,0 C 92 % 983,5 hPa 0,0 l/m W-SW 0,00 h 7 W/m 13,7 km/h (3 Bft)
31.01.2015 08:00 -1,5 C 92 % 984,0 hPa 0,0 l/m W-SW 0,00 h 27 W/m 12,4 km/h (3 Bft)
31.01.2015 09:00 -1,4 C 93 % 984,2 hPa 0,0 l/m SW 0,50 h 114 W/m 17,0 km/h (3 Bft)
31.01.2015 10:00 -0,1 C 90 % 984,4 hPa 0,0 l/m W-SW 1,00 h 259 W/m 19,7 km/h (3 Bft)
31.01.2015 11:00 1,0 C 84 % 984,8 hPa 0,0 l/m W-SW 0,92 h 368 W/m 17,2 km/h (3 Bft)
31.01.2015 12:00 1,5 C 80 % 984,6 hPa 0,0 l/m W-SW 1,00 h 364 W/m 15,2 km/h (3 Bft)
31.01.2015 13:00 1,6 C 79 % 984,6 hPa 0,0 l/m SW 0,25 h 210 W/m 13,3 km/h (3 Bft)
31.01.2015 14:00 1,5 C 79 % 984,8 hPa 0,0 l/m SW 0,00 h 130 W/m 13,4 km/h (3 Bft)
31.01.2015 15:00 1,5 C 80 % 984,9 hPa 0,0 l/m SW 0,08 h 95 W/m 6,8 km/h (2 Bft)
31.01.2015 16:00 1,1 C 81 % 985,3 hPa 0,0 l/m SW 0,00 h 36 W/m 5,9 km/h (2 Bft)
31.01.2015 17:00 0,8 C 83 % 985,6 hPa 0,0 l/m SW 0,00 h 6 W/m 10,5 km/h (2 Bft)
31.01.2015 18:00 0,3 C 88 % 986,2 hPa 0,0 l/m W-SW 0,00 h 0 W/m 16,4 km/h (3 Bft)
31.01.2015 19:00 0,2 C 90 % 986,9 hPa 0,0 l/m W-SW 0,00 h 0 W/m 18,6 km/h (3 Bft)
31.01.2015 20:00 0,1 C 92 % 987,4 hPa 0,0 l/m SW 0,00 h 0 W/m 13,6 km/h (3 Bft)
31.01.2015 21:00 0,3 C 92 % 987,7 hPa 0,0 l/m SW 0,00 h 0 W/m 9,7 km/h (2 Bft)
31.01.2015 22:00 0,2 C 92 % 987,7 hPa 0,0 l/m SW 0,00 h 0 W/m 8,3 km/h (2 Bft)
31.01.2015 23:00 0,0 C 93 % 987,8 hPa 0,0 l/m SW 0,00 h 0 W/m 8,7 km/h (2 Bft)
01.02.2015 00:00 -0,3 C 93 % 987,9 hPa 0,0 l/m SW 0,00 h 0 W/m 3,6 km/h (1 Bft)
01.02.2015 01:00 -1,1 C 93 % 987,9 hPa 0,0 l/m SW 0,00 h 0 W/m 5,2 km/h (1 Bft)
01.02.2015 02:00 -2,1 C 93 % 988,6 hPa 0,0 l/m SW 0,00 h 0 W/m 8,3 km/h (2 Bft)
01.02.2015 03:00 -2,4 C 94 % 988,5 hPa 0,0 l/m SW 0,00 h 0 W/m 8,2 km/h (2 Bft)
01.02.2015 04:00 -2,5 C 94 % 988,1 hPa 0,0 l/m SW 0,00 h 0 W/m 10,6 km/h (2 Bft)
01.02.2015 05:00 -2,3 C 95 % 988,0 hPa 0,0 l/m SW 0,00 h 0 W/m 8,5 km/h (2 Bft)
01.02.2015 06:00 -1,6 C 95 % 988,4 hPa 0,0 l/m SW 0,00 h 0 W/m 20,1 km/h (4 Bft)
01.02.2015 07:00 -1,4 C 95 % 989,0 hPa 0,0 l/m W-SW 0,00 h 5 W/m 20,4 km/h (4 Bft)
01.02.2015 08:00 -1,2 C 94 % 990,2 hPa 0,0 l/m W-SW 0,00 h 28 W/m 16,6 km/h (3 Bft)
01.02.2015 09:00 -1,2 C 92 % 990,9 hPa 0,0 l/m SW 0,17 h 91 W/m 13,2 km/h (3 Bft)
01.02.2015 10:00 -0,4 C 89 % 991,6 hPa 0,0 l/m SW 0,50 h 191 W/m 16,8 km/h (3 Bft)
01.02.2015 11:00 0,0 C 86 % 992,2 hPa 0,0 l/m W-SW 0,00 h 148 W/m 16,4 km/h (3 Bft)
01.02.2015 12:00 0,2 C 83 % 992,4 hPa 0,0 l/m W-SW 0,00 h 132 W/m 14,6 km/h (3 Bft)
01.02.2015 13:00 1,0 C 79 % 992,6 hPa 0,0 l/m SW 0,50 h 297 W/m 19,4 km/h (3 Bft)
01.02.2015 14:00 0,3 C 85 % 992,8 hPa 0,0 l/m W-SW 0,00 h 110 W/m 18,9 km/h (3 Bft)
01.02.2015 15:00 -0,7 C 91 % 993,3 hPa 0,0 l/m W-SW 0,00 h 39 W/m 17,2 km/h (3 Bft)
01.02.2015 16:00 -0,9 C 94 % 993,8 hPa 0,4 l/m W-SW 0,00 h 11 W/m 15,3 km/h (3 Bft)
01.02.2015 17:00 -0,8 C 95 % 994,4 hPa 0,2 l/m W-SW 0,00 h 0 W/m 14,6 km/h (3 Bft)
01.02.2015 18:00 -0,7 C 95 % 995,6 hPa 0,2 l/m W 0,00 h 0 W/m 16,1 km/h (3 Bft)
01.02.2015 19:00 -0,7 C 94 % 996,1 hPa 0,0 l/m W 0,00 h 0 W/m 13,0 km/h (3 Bft)
01.02.2015 20:00 -0,8 C 93 % 996,5 hPa 0,0 l/m W-SW 0,00 h 0 W/m 17,8 km/h (3 Bft)
01.02.2015 21:00 -0,8 C 93 % 996,7 hPa 0,0 l/m W-SW 0,00 h 0 W/m 26,3 km/h (4 Bft)
01.02.2015 22:00 -0,8 C 92 % 996,7 hPa 0,0 l/m W-SW 0,00 h 0 W/m 26,8 km/h (4 Bft)
01.02.2015 23:00 -0,9 C 92 % 996,8 hPa 0,0 l/m W-SW 0,00 h 0 W/m 31,3 km/h (5 Bft)
Min-Datum _ 01.02.15 31.01.15 30.01.15 - - - - 26.01.15
_ Min-Zeit 04:20 14:10 02:20 - - - - 00:50
Minimum _ -2,7 C 77 % 974,8 hPa - - - - 0,0 km/h (0 Bft)
Max-Datum _ 27.01.15 27.01.15 26.01.15 30.01.15 - 26.01.15 01.02.15 28.01.15
_ Max-Zeit 13:35 11:00 00:15 02:05 - 09:25 13:20 20:10
Maximum _ 2,2 C 100 % 1028,7 hPa 3,0 l/m - 0,08 h 489 W/m 48,3 km/h
SW (6 Bft)
Durchschnitt _ -0,2 C 92 % 1001,6 hPa #19,0 l/m SW #7:20 h 97 W/m 14,6 km/h (3 Bft)